FENGYUN 1C DEB

Satellite information

Favourite Embed

Satellite Type and Status

DEBRISIN ORBIT

Key statistics

Satellite FENGYUN 1C DEB at a glance.

Uptime

9661

Days in orbit

Revolutions

≈ 13.6

Per day

Orbit

SSO

Sun Synchronous Orbit

Inclination

99.3

Latest

Satellite identification and parameters

Extended collection of information and parameters for FENGYUN 1C DEB.

Object identification

Identified? True

Debris? True

Object name: FENGYUN 1C DEB

International designator: 1999-025CBM

Object number (NORAD): 31655

Object ID (CCSDS): 31655

Country: PEOPLES REPUBLIC OF CHINA (PRC)

Current information (Y/N): Y

RCS size: SMALL

Orbital parameters

Period: 105.634 minutes

Inclination: 99.2848 deg

SMA: 7402.251 km

Apoapsis: 1245.216 km

Periapsis: 803.016 km

RAAN: 223.2312 deg

Eccentricy: 0.02986927

Argument of periapsis: 326.3973 deg

Mean anomaly: 47.3149 deg

Mean motion: 13.63192153 rev/day

Mean motion (dot): 0.00010472 rev/day2

B* drag term: 0.0098975541 1/REarth

Two-line elements (TLE)

Creation date: Oct. 1, 2025, 10:13 a.m.

Reference frame: TEME

Reference center: EARTH

Epoch: Oct. 1, 2025, 3:26 a.m. UTC

TLE line 0: 0 FENGYUN 1C DEB

TLE line 1: 1 31655U 99025CBM 25274.14345225 .00010472 00000-0 98976-2 0 9996

TLE line 2: 2 31655 99.2848 223.2312 0298693 326.3973 47.3149 13.63192153587302

Live tracking on map

Real-time ground track for satellite FENGYUN 1C DEB.

In-orbit conjunctions

A list of the most updated potential collisions computed for object FENGYUN 1C DEB.

Target Orbit TCA Probability of collision Miss distance Type
OBJECT D SSO 2025-09-09 19:03:14 0.0001131612 232.0 (m) UNKNOWN
OBJECT B LEO 2025-03-02 04:30:29 0.0001185049 249.0 (m) UNKNOWN
SL-16 DEB LEO 2024-11-12 14:59:25 0.000119455 498.0 (m) DEBRIS

Associated space launch

Chinese polar orbiting meteorological satellite

FENGYUN 1C DEB was lifted into orbit during the mission ‘Long March 4B | Feng Yun 1C’, on board a Long March 4B space rocket.

The launch took place on May 10, 1999, 1:33 a.m. from Launch Complex 7.

For more information about the launch, click the button.

Launch to space Long March 4B | Feng Yun 1C
Long March 4B | Feng Yun 1C

Agency: N/A

Status: Launch Successful

Launch date: May 10, 1999, 1:33 a.m. UTC

Rocket: Long March 4B

Launch pad: Launch Complex 7

Location: Taiyuan Satellite Launch Center, People's Republic of China

...

Latest news about this satellite

There are no fresh news available about this satellite. Check back as we update our databases every day.


Newsletter sign-up

Weekly statistics, charts and insights to help you stay on top of the space industry.